User: anonymous
Location: Bismarck
(46.7731°N, 100.8200°W)
Time: 08:49:48
(UTC-05:00)
Language:

Cosmos 2219 Rocket - Orbit

View from above orbital plane
View from above orbital plane
View from above satellite
View from above satellite

Ground track
Ground track

The orbit data is extracted from the following two-line orbital elements,

1 22220U 92076B   14271.79734046  .00000274  00000-0  16179-3 0  4217
2 22220 071.0024 348.0393 0013927 336.4693 154.1850 14.16318989130255
Epoch (UTC): 28 September 2014 19:08:10
Eccentricity: 0.0013927
inclination: 71.0024°
perigee height: 828 km
apogee height: 848 km
right ascension of ascending node: 348.0393°
argument of perigee: 336.4693°
revolutions per day: 14.16318989
mean anomaly at epoch: 154.1850°
orbit number at epoch: 13025

The dashed part of the orbit path shows where the satellite is in the earth's shadow,  

DLR